Location: Park Creek Village Mobile Home Park
(38.2885°N, 122.4714°W)
Time: 21:19:26
(UTC+00:00)

Cosmos 2279 Rocket - Pass Details

Date: 14 December 2019
Orbit: 964 x 979 km, 82.9° (Epoch: 28 January)

Event Time Altitude Azimuth Distance (km) Brightness Sun altitude
Rises 13:05:07 0° 177° (S) 3,639 7.2 -25.4°
Reaches altitude 10° 13:07:37 10° 174° (S) 2,697 6.5 -24.9°
Maximum altitude 13:13:44 67° 93° (E) 1,045 4.3 -23.7°
Drops below altitude 10° 13:19:54 10° 12° (NNE) 2,724 6.3 -22.6°
Sets 13:22:26 0° 10° (N) 3,677 7.0 -22.1°
